[Date Prev][Date Next][Thread Prev][Thread Next] - [Date Index][Thread Index][Author Index]

2 Line ISS Keps 4-7



ISS
1 25544U 98067A   03097.28410506  .00023584  00000-0  30545-3 0  8648
2 25544  51.6364  16.3314 0004235  33.2776 109.1407 15.58758041249941


----
Via the sarex mailing list at AMSAT.ORG courtesy of AMSAT-NA.
To unsubscribe, send "unsubscribe sarex" to Majordomo@amsat.org



AMSAT Top AMSAT Home